ANZ593 NSFA-NTAA

Flight info

Callsign ANZ593
Flight time N/A
Altitude 35000
Route PONAT1R PONAT B577 TUT G224 OPERU DCT IDUTA IDUTA3V
Aircraft B77W/H-SDE1E2E3FGHIJ2J3J4J5M1RWXY/LB1D1

Departure

Time N/A
Airport Faleolo International Airport (NSFA)

Arrival

Time 2026-04-27 21:34
Airport Fa'a'ā International Airport (NTAA)
Time Latitude Longitude Altitude Speed Heading
2026-04-27 20:30 -16.57412 -157.46112 34965 ft 489 kts 101°
2026-04-27 20:30 -16.57896 -157.42574 34962 ft 489 kts 101°
2026-04-27 20:31 -16.58872 -157.35422 34964 ft 489 kts 101°
2026-04-27 20:31 -16.59844 -157.28275 34960 ft 489 kts 101°
2026-04-27 20:32 -16.60812 -157.21143 34960 ft 490 kts 101°
2026-04-27 20:32 -16.61783 -157.13972 34962 ft 490 kts 101°
2026-04-27 20:33 -16.62749 -157.06819 34962 ft 491 kts 101°
2026-04-27 20:33 -16.63716 -156.99632 34964 ft 490 kts 101°
2026-04-27 20:34 -16.64723 -156.92491 34960 ft 489 kts 101°
2026-04-27 20:34 -16.65732 -156.85382 34963 ft 489 kts 101°
2026-04-27 20:35 -16.66633 -156.79004 34963 ft 490 kts 101°
2026-04-27 20:35 -16.67639 -156.71863 34961 ft 489 kts 101°
2026-04-27 20:36 -16.68642 -156.64722 34961 ft 492 kts 101°
2026-04-27 20:36 -16.69646 -156.57547 34967 ft 490 kts 101°
2026-04-27 20:37 -16.70650 -156.50362 34965 ft 491 kts 101°
2026-04-27 20:37 -16.71637 -156.43269 34967 ft 490 kts 101°
2026-04-27 20:38 -16.72629 -156.36127 34967 ft 490 kts 101°
2026-04-27 20:38 -16.73607 -156.29069 34966 ft 490 kts 101°
2026-04-27 20:39 -16.74596 -156.21915 34969 ft 491 kts 101°
2026-04-27 20:39 -16.75584 -156.14751 34968 ft 490 kts 101°
2026-04-27 20:40 -16.76571 -156.07568 34969 ft 492 kts 101°
2026-04-27 20:40 -16.77553 -156.00404 34969 ft 491 kts 101°
2026-04-27 20:41 -16.78538 -155.93202 34969 ft 491 kts 101°
2026-04-27 20:41 -16.79516 -155.86035 34968 ft 490 kts 101°
2026-04-27 20:42 -16.80488 -155.78883 34966 ft 490 kts 101°
2026-04-27 20:42 -16.81461 -155.71712 34968 ft 491 kts 101°
2026-04-27 20:43 -16.82439 -155.64485 34969 ft 491 kts 101°
2026-04-27 20:43 -16.83405 -155.57327 34970 ft 491 kts 101°
2026-04-27 20:44 -16.84367 -155.50182 34972 ft 491 kts 101°
2026-04-27 20:44 -16.85335 -155.42972 34974 ft 491 kts 101°
2026-04-27 20:45 -16.86184 -155.36627 34971 ft 491 kts 101°
2026-04-27 20:45 -16.87138 -155.29485 34968 ft 490 kts 100°
2026-04-27 20:46 -16.88095 -155.22301 34968 ft 491 kts 100°
2026-04-27 20:46 -16.89047 -155.15131 34967 ft 491 kts 100°
2026-04-27 20:47 -16.89998 -155.07948 34964 ft 491 kts 100°
2026-04-27 20:47 -16.90943 -155.00800 34971 ft 490 kts 100°
2026-04-27 20:48 -16.91723 -154.94875 34969 ft 490 kts 100°
2026-04-27 20:48 -16.92823 -154.86502 34967 ft 489 kts 100°
2026-04-27 20:49 -16.93760 -154.79358 34968 ft 491 kts 100°
2026-04-27 20:49 -16.94698 -154.72177 34971 ft 490 kts 100°
2026-04-27 20:50 -16.95631 -154.65013 34970 ft 490 kts 100°
2026-04-27 20:50 -16.96560 -154.57866 34971 ft 492 kts 100°
2026-04-27 20:51 -16.97487 -154.50709 34968 ft 491 kts 101°
2026-04-27 20:51 -16.98413 -154.43545 34961 ft 491 kts 100°
2026-04-27 20:52 -16.99344 -154.36317 34961 ft 491 kts 100°
2026-04-27 20:52 -17.00186 -154.29768 34957 ft 490 kts 100°
2026-04-27 20:53 -17.01067 -154.22893 34951 ft 491 kts 100°
2026-04-27 20:53 -17.01984 -154.15718 34948 ft 489 kts 100°
2026-04-27 20:54 -17.03357 -154.04939 34947 ft 492 kts 100°
2026-04-27 20:55 -17.04164 -153.98575 34949 ft 492 kts 100°
2026-04-27 20:55 -17.05076 -153.91377 34951 ft 492 kts 100°
2026-04-27 20:56 -17.05984 -153.84180 34946 ft 491 kts 100°
2026-04-27 20:56 -17.06891 -153.76973 34948 ft 492 kts 100°
2026-04-27 20:57 -17.07792 -153.69792 34952 ft 491 kts 100°
2026-04-27 20:57 -17.08691 -153.62608 34949 ft 491 kts 100°
2026-04-27 20:58 -17.09581 -153.55472 34954 ft 491 kts 100°
2026-04-27 20:58 -17.10478 -153.48263 34972 ft 492 kts 100°
2026-04-27 20:59 -17.11378 -153.41005 34975 ft 493 kts 100°
2026-04-27 20:59 -17.12268 -153.33809 34969 ft 493 kts 100°
2026-04-27 21:00 -17.13118 -153.26912 34960 ft 493 kts 100°
2026-04-27 21:00 -17.13928 -153.20320 34968 ft 492 kts 100°
2026-04-27 21:01 -17.14773 -153.13435 34975 ft 493 kts 99°
2026-04-27 21:01 -17.15654 -153.06227 34974 ft 492 kts 100°
2026-04-27 21:02 -17.16528 -152.99056 34974 ft 491 kts 100°
2026-04-27 21:02 -17.17388 -152.91978 34974 ft 492 kts 100°
2026-04-27 21:03 -17.18261 -152.84776 34975 ft 493 kts 100°
2026-04-27 21:03 -17.19130 -152.77579 34980 ft 492 kts 100°
2026-04-27 21:04 -17.19995 -152.70396 34982 ft 492 kts 100°
2026-04-27 21:04 -17.20865 -152.63148 34980 ft 492 kts 100°
2026-04-27 21:05 -17.21639 -152.56685 34981 ft 492 kts 100°
2026-04-27 21:05 -17.22503 -152.49448 34980 ft 491 kts 100°
2026-04-27 21:06 -17.23357 -152.42274 34980 ft 492 kts 100°
2026-04-27 21:06 -17.24211 -152.35074 34982 ft 491 kts 100°
2026-04-27 21:07 -17.25068 -152.27828 34978 ft 492 kts 100°
2026-04-27 21:07 -17.25912 -152.20664 34967 ft 489 kts 100°
2026-04-27 21:08 -17.26756 -152.13486 34957 ft 489 kts 99°
2026-04-27 21:08 -17.27601 -152.06280 34960 ft 490 kts 100°
2026-04-27 21:09 -17.28434 -151.99147 34960 ft 490 kts 100°
2026-04-27 21:09 -17.29273 -151.91936 34961 ft 490 kts 100°
2026-04-27 21:10 -17.30107 -151.84750 34962 ft 487 kts 100°
2026-04-27 21:10 -17.30933 -151.77615 34970 ft 489 kts 100°
2026-04-27 21:11 -17.31763 -151.70412 34973 ft 487 kts 100°
2026-04-27 21:11 -17.33183 -151.63422 34976 ft 483 kts 108°
2026-04-27 21:12 -17.34917 -151.56532 34884 ft 478 kts 108°
2026-04-27 21:12 -17.35781 -151.53084 34091 ft 479 kts 108°
2026-04-27 21:12 -17.36637 -151.49660 33128 ft 482 kts 108°
2026-04-27 21:12 -17.37500 -151.46199 32327 ft 483 kts 107°
2026-04-27 21:13 -17.38357 -151.42754 31553 ft 484 kts 107°
2026-04-27 21:13 -17.39223 -151.39267 30743 ft 485 kts 107°
2026-04-27 21:13 -17.40073 -151.35835 30226 ft 480 kts 107°
2026-04-27 21:13 -17.40923 -151.32399 29762 ft 473 kts 106°
2026-04-27 21:14 -17.41757 -151.29022 29251 ft 468 kts 107°
2026-04-27 21:14 -17.42591 -151.25650 28715 ft 464 kts 106°
2026-04-27 21:14 -17.43371 -151.22488 28218 ft 460 kts 106°
2026-04-27 21:14 -17.44017 -151.19870 27798 ft 456 kts 106°
2026-04-27 21:15 -17.44824 -151.16597 27265 ft 452 kts 106°
2026-04-27 21:15 -17.45614 -151.13388 26744 ft 448 kts 106°
2026-04-27 21:15 -17.46408 -151.10162 26212 ft 445 kts 106°
2026-04-27 21:15 -17.47187 -151.06993 25686 ft 441 kts 106°
2026-04-27 21:16 -17.47964 -151.03830 25162 ft 438 kts 105°
2026-04-27 21:16 -17.48735 -151.00691 24635 ft 434 kts 105°
2026-04-27 21:16 -17.49511 -150.97530 24106 ft 431 kts 105°
2026-04-27 21:16 -17.50263 -150.94463 23587 ft 427 kts 105°
2026-04-27 21:17 -17.50998 -150.91461 23078 ft 424 kts 105°
2026-04-27 21:17 -17.51746 -150.88406 22560 ft 421 kts 105°
2026-04-27 21:17 -17.52469 -150.85451 22055 ft 418 kts 105°
2026-04-27 21:17 -17.53196 -150.82480 21543 ft 415 kts 105°
2026-04-27 21:18 -17.53921 -150.79511 21026 ft 413 kts 104°
2026-04-27 21:18 -17.54634 -150.76590 20505 ft 411 kts 104°
2026-04-27 21:18 -17.55352 -150.73648 19979 ft 408 kts 104°
2026-04-27 21:18 -17.56069 -150.70709 19453 ft 406 kts 103°
2026-04-27 21:19 -17.56779 -150.67795 18923 ft 404 kts 103°
2026-04-27 21:19 -17.57473 -150.64944 18406 ft 402 kts 103°
2026-04-27 21:19 -17.58170 -150.62077 17886 ft 400 kts 103°
2026-04-27 21:20 -17.59552 -150.56392 16840 ft 396 kts 103°
2026-04-27 21:20 -17.60239 -150.53564 16317 ft 394 kts 103°
2026-04-27 21:20 -17.60924 -150.50742 15780 ft 392 kts 103°
2026-04-27 21:20 -17.61508 -150.47934 15254 ft 389 kts 96°
2026-04-27 21:21 -17.61606 -150.45103 14757 ft 384 kts 86°
2026-04-27 21:21 -17.61415 -150.42291 14291 ft 381 kts 84°
2026-04-27 21:21 -17.61197 -150.39479 13793 ft 378 kts 84°
2026-04-27 21:21 -17.60979 -150.36705 13275 ft 376 kts 84°
2026-04-27 21:22 -17.60759 -150.33934 12737 ft 375 kts 84°
2026-04-27 21:22 -17.60540 -150.31174 12083 ft 377 kts 84°
2026-04-27 21:22 -17.60319 -150.28412 11563 ft 374 kts 84°
2026-04-27 21:22 -17.60100 -150.25688 11013 ft 373 kts 84°
2026-04-27 21:23 -17.59881 -150.22963 10692 ft 364 kts 84°
2026-04-27 21:23 -17.59670 -150.20344 10575 ft 350 kts 84°
2026-04-27 21:23 -17.59466 -150.17812 10435 ft 337 kts 84°
2026-04-27 21:23 -17.59267 -150.15358 10301 ft 325 kts 84°
2026-04-27 21:24 -17.59075 -150.12993 10171 ft 314 kts 84°
2026-04-27 21:24 -17.58888 -150.10701 10042 ft 303 kts 83°
2026-04-27 21:24 -17.58718 -150.08611 9874 ft 295 kts 83°
2026-04-27 21:24 -17.58579 -150.06912 9602 ft 293 kts 84°
2026-04-27 21:25 -17.58405 -150.04784 9448 ft 279 kts 83°
2026-04-27 21:25 -17.58236 -150.02713 8949 ft 284 kts 83°
2026-04-27 21:25 -17.58062 -150.00598 8514 ft 285 kts 84°
2026-04-27 21:25 -17.57894 -149.98540 8381 ft 276 kts 83°
2026-04-27 21:26 -17.57722 -149.96454 7832 ft 283 kts 83°
2026-04-27 21:26 -17.57757 -149.94391 7506 ft 278 kts 104°
2026-04-27 21:26 -17.58638 -149.92555 7066 ft 280 kts 122°
2026-04-27 21:26 -17.60139 -149.91159 6642 ft 283 kts 151°
2026-04-27 21:27 -17.62012 -149.90439 6300 ft 282 kts 162°
2026-04-27 21:27 -17.63943 -149.89916 5956 ft 279 kts 162°
2026-04-27 21:27 -17.65796 -149.89267 5626 ft 273 kts 153°
2026-04-27 21:27 -17.67550 -149.88420 5295 ft 272 kts 150°
2026-04-27 21:28 -17.69236 -149.87492 5056 ft 267 kts 148°
2026-04-27 21:28 -17.70871 -149.86543 4969 ft 256 kts 146°
2026-04-27 21:28 -17.72212 -149.85324 4644 ft 249 kts 119°
2026-04-27 21:28 -17.72773 -149.83633 4311 ft 241 kts 90°
2026-04-27 21:29 -17.72497 -149.81908 4055 ft 232 kts 62°
2026-04-27 21:29 -17.71441 -149.80693 3987 ft 217 kts 29°
2026-04-27 21:29 -17.70074 -149.80020 3983 ft 206 kts 26°
2026-04-27 21:29 -17.68792 -149.79393 3905 ft 194 kts 32°
2026-04-27 21:30 -17.67754 -149.78497 3663 ft 188 kts 49°
2026-04-27 21:30 -17.66934 -149.77420 3436 ft 184 kts 54°
2026-04-27 21:30 -17.66175 -149.76318 3209 ft 180 kts 54°
2026-04-27 21:30 -17.65437 -149.75241 2989 ft 178 kts 54°
2026-04-27 21:31 -17.64686 -149.74152 2761 ft 186 kts 54°
2026-04-27 21:31 -17.63902 -149.73018 2515 ft 185 kts 54°
2026-04-27 21:31 -17.63134 -149.71909 2278 ft 185 kts 54°
2026-04-27 21:31 -17.62375 -149.70810 2046 ft 178 kts 54°
2026-04-27 21:32 -17.61655 -149.69771 1811 ft 165 kts 54°
2026-04-27 21:32 -17.60997 -149.68822 1623 ft 154 kts 54°
2026-04-27 21:32 -17.60348 -149.67886 1418 ft 155 kts 54°
2026-04-27 21:32 -17.59720 -149.66980 1216 ft 155 kts 53°
2026-04-27 21:33 -17.59082 -149.66060 1010 ft 154 kts 53°
2026-04-27 21:33 -17.58440 -149.65134 802 ft 154 kts 53°
2026-04-27 21:33 -17.57794 -149.64201 593 ft 155 kts 53°
2026-04-27 21:33 -17.57156 -149.63280 387 ft 154 kts 53°
2026-04-27 21:34 -17.56504 -149.62357 190 ft 155 kts 51°
2026-04-27 21:34 -17.55854 -149.61423 27 ft 147 kts 53°
2026-04-27 21:34 -17.55486 -149.60904 26 ft 74 kts 51°
2026-04-27 21:34 -17.55336 -149.60706 22 ft 13 kts 44°
2026-04-27 21:35 -17.55344 -149.60683 23 ft 3 kts 206°
2026-04-27 21:35 -17.55370 -149.60719 23 ft 9 kts 236°
2026-04-27 21:35 -17.55419 -149.60792 24 ft 14 kts 235°
2026-04-27 21:35 -17.55487 -149.60895 26 ft 18 kts 235°
2026-04-27 21:36 -17.55571 -149.61014 29 ft 19 kts 233°
2026-04-27 21:36 -17.55655 -149.61119 29 ft 17 kts 204°
2026-04-27 21:36 -17.55742 -149.61089 32 ft 10 kts 147°
2026-04-27 21:36 -17.55766 -149.61038 33 ft 7 kts 81°
2026-04-27 21:37 -17.55766 -149.60998 34 ft 3 kts 124°
2026-04-27 21:37 -17.55789 -149.60980 34 ft 5 kts 143°
2026-04-27 21:37 -17.55813 -149.60960 34 ft 0 kts 145°